203017724,2009-08-25T12:23:30.556,-1686.85, 7676343, 165.91,   2.78, 2575154, 2575102, 2575019, 2575122, 2575187,      79,    2.21,   0.051,   18.97,   36.52,    0.21
203017725,2009-08-25T12:23:34.556,-1682.85, 7655118, 166.15,   3.02, 2575191, 2575138, 2575030, 2575175, 2575216,      79,    3.01,   0.441,   20.40,   39.06,    0.27
203017726,2009-08-25T12:23:38.556,-1678.85, 7633923, 166.25,   3.08, 2575149, 2575154, 2575003, 2575180, 2575176,     107,    2.33,   0.574,   14.65,   36.06,    0.21
203017727,2009-08-25T12:23:42.556,-1674.85, 7612697, 166.30,   3.05, 2575137, 2575135, 2574986, 2575159, 2575164,      96,    1.79,   0.559,   16.21,   33.18,    0.12
203017728,2009-08-25T12:23:46.223,-1671.18, 7593271, 166.34,   3.00, 2575126, 2575149, 2575003, 2575166, 2575151,      83,    1.72,   0.526,   17.23,   35.01,    0.14
203017729,2009-08-25T12:23:49.890,-1667.51, 7573844, 166.37,   2.95, 2575111, 2575138, 2574982, 2575137, 2575136,      89,    1.15,   0.493,   15.76,   33.88,    0.05
203017730,2009-08-25T12:23:53.557,-1663.85, 7554418, 166.41,   2.91, 2575115, 2575136, 2575006, 2575154, 2575141,      77,    1.95,   0.463,   17.07,   35.23,    0.17
203017731,2009-08-25T12:23:57.224,-1660.18, 7534991, 166.46,   2.84, 2575162, 2575146, 2575015, 2575157, 2575187,      76,    1.62,   0.436,   17.51,   35.68,    0.14
203017732,2009-08-25T12:24:01.555,-1655.85, 7512057, 166.51,   2.75, 2575116, 2575125, 2574995, 2575130, 2575141,      84,    1.52,   0.404,   15.87,   34.17,    0.11
203017733,2009-08-25T12:24:05.222,-1652.18, 7492660, 166.56,   2.66, 2575128, 2575101, 2574996, 2575129, 2575153,      63,    2.43,   0.398,   16.66,   35.14,    0.22
203017734,2009-08-25T12:24:08.889,-1648.51, 7473234, 166.59,   2.56, 2575137, 2575131, 2574979, 2575113, 2575162,     109,    1.34,   0.401,   13.28,   32.25,    0.05
203017735,2009-08-25T12:24:12.556,-1644.85, 7453837, 166.63,   2.43, 2575136, 2575121, 2574927, 2575071, 2575161,     136,    0.90,   0.458,   12.02,   29.52,    0.16
203017736,2009-08-25T12:24:16.223,-1641.18, 7434501, 166.67,   2.30, 2575132, 2575129, 2574937, 2575106, 2575159,     151,    1.53,   0.560,   12.22,   29.31,    0.06
203017737,2009-08-25T12:24:20.555,-1636.85, 7411716, 166.72,   2.24, 2575111, 2575119, 2574912, 2575092, 2575138,     133,    1.06,   0.600,   12.44,   29.62,    0.13
203017738,2009-08-25T12:24:24.222,-1633.18, 7392140, 166.75,   2.20, 2575155, 2575099, 2574904, 2575087, 2575183,     142,    1.10,   0.613,   12.12,   29.08,    0.10
203017739,2009-08-25T12:24:27.889,-1629.51, 7372833, 166.79,   2.17, 2575121, 2575110, 2574871, 2575059, 2575150,     176,    0.83,   0.629,   11.64,   27.24,    0.17
203017740,2009-08-25T12:24:31.556,-1625.85, 7353377, 166.81,   2.16, 2575183, 2575088, 2574920, 2575102, 2575211,     140,    1.29,   0.611,   12.58,   28.89,    0.00
203017741,2009-08-25T12:24:35.223,-1622.18, 7334070, 166.84,   2.14, 2575166, 2575129, 2574911, 2575090, 2575194,     153,    0.94,   0.604,   13.15,   30.92,    0.05
203017742,2009-08-25T12:24:39.555,-1617.85, 7311196, 166.90,   2.12, 2575106, 2575057, 2574865, 2575046, 2575134,     145,    1.16,   0.609,   12.08,   29.70,    0.02
203017743,2009-08-25T12:24:43.222,-1614.18, 7291740, 166.92,   2.11, 2575130, 2575138, 2574944, 2575119, 2575158,     147,    1.31,   0.592,   14.66,   33.11,    0.08
203017744,2009-08-25T12:24:46.889,-1610.51, 7272433, 166.94,   2.09, 2575137, 2575089, 2574888, 2575060, 2575164,     148,    0.70,   0.584,   12.05,   28.76,    0.11
203017745,2009-08-25T12:24:50.556,-1606.85, 7253036, 166.98,   2.06, 2575165, 2575113, 2574878, 2575051, 2575192,     160,    0.38,   0.589,   11.71,   27.13,    0.28
203017746,2009-08-25T12:24:54.223,-1603.18, 7233640, 167.03,   2.04, 2575137, 2575103, 2574904, 2575080, 2575164,     146,    0.57,   0.597,   11.30,   28.29,    0.22
203017747,2009-08-25T12:24:58.555,-1598.85, 7210886, 167.09,   2.03, 2575176, 2575092, 2574926, 2575101, 2575204,     138,    0.84,   0.596,   12.06,   28.73,    0.10
203017748,2009-08-25T12:25:02.222,-1595.18, 7191489, 167.14,   2.02, 2575145, 2574915, 2574871, 2575042, 2575172,     145,    0.31,   0.587,   10.43,   27.76,    0.46
203017749,2009-08-25T12:25:05.889,-1591.51, 7172152, 167.17,   2.00, 2575164, 2575032, 2574876, 2575045, 2575190,     128,    0.14,   0.577,   11.81,   28.25,    0.31
203017750,2009-08-25T12:25:09.556,-1587.85, 7152876, 167.20,   1.98, 2575150, 2575093, 2574913, 2575082, 2575177,     145,    1.07,   0.581,   11.87,   29.45,    0.02
203017751,2009-08-25T12:25:13.223,-1584.18, 7133719, 167.24,   1.95, 2575194, 2575055, 2574894, 2575066, 2575221,     131,    0.45,   0.591,   11.32,   29.12,    0.19
203017752,2009-08-25T12:25:17.555,-1579.85, 7110875, 167.29,   1.94, 2575159, 2575121, 2574929, 2575099, 2575186,     123,    0.49,   0.586,   12.80,   29.54,    0.07
203017753,2009-08-25T12:25:21.222,-1576.18, 7091538, 167.33,   1.91, 2575214, 2574956, 2574874, 2575045, 2575242,     124,    0.29,   0.589,   12.77,   30.47,    0.09
203017754,2009-08-25T12:25:24.889,-1572.51, 7072231, 167.36,   1.89, 2575200, 2574979, 2574893, 2575065, 2575228,     127,    0.62,   0.595,   11.57,   27.72,    0.14
203017755,2009-08-25T12:25:28.556,-1568.85, 7052895, 167.40,   1.86, 2575222, 2574996, 2574873, 2575046, 2575249,     136,    0.70,   0.600,   11.46,   27.99,    0.08
203017756,2009-08-25T12:25:32.223,-1565.18, 7033648, 167.43,   1.86, 2575181, 2575089, 2574931, 2575098, 2575208,     146,    0.35,   0.581,   11.14,   27.29,    0.39
203017757,2009-08-25T12:25:36.555,-1560.85, 7010804, 167.48,   1.85, 2575194, 2575004, 2574913, 2575075, 2575220,     149,    0.39,   0.566,   10.98,   27.07,    0.24
203017758,2009-08-25T12:25:40.222,-1557.18, 6991557, 167.52,   1.82, 2575173, 2575001, 2574912, 2575075, 2575199,     130,    0.71,   0.573,   12.11,   29.16,    0.09
203017759,2009-08-25T12:25:43.889,-1553.51, 6972281, 167.56,   1.79, 2575180, 2574987, 2574893, 2575060, 2575207,     105,    0.43,   0.587,   13.76,   32.92,    0.11
203017760,2009-08-25T12:25:47.556,-1549.85, 6953064, 167.59,   1.77, 2575192, 2574984, 2574917, 2575082, 2575219,     154,    0.36,   0.582,   11.08,   27.59,    0.34
203017761,2009-08-25T12:25:51.223,-1546.18, 6933817, 167.64,   1.76, 2575232, 2574968, 2574934, 2575099, 2575260,     150,    0.15,   0.581,   11.52,   28.50,    0.36
203017762,2009-08-25T12:25:55.555,-1541.85, 6911003, 167.69,   1.72, 2575191, 2574949, 2574893, 2575062, 2575219,     131,   -0.09,   0.596,   10.89,   27.59,    0.33
203017763,2009-08-25T12:25:59.222,-1538.18, 6891726, 167.74,   1.71, 2575199, 2575004, 2574915, 2575084, 2575227,     133,    0.21,   0.597,   11.07,   28.37,    0.17
203017764,2009-08-25T12:26:02.889,-1534.51, 6872510, 167.78,   1.69, 2575183, 2574971, 2574873, 2575040, 2575210,     125,    0.32,   0.594,   10.51,   27.44,    0.17
203017765,2009-08-25T12:26:06.556,-1530.85, 6853293, 167.81,   1.67, 2575165, 2574974, 2574899, 2575068, 2575193,     117,    0.28,   0.598,   12.42,   30.05,    0.16
203017766,2009-08-25T12:26:10.223,-1527.18, 6834076, 167.84,   1.65, 2575145, 2575007, 2574903, 2575070, 2575173,     114,    0.10,   0.593,   13.24,   30.49,    0.09
203017767,2009-08-25T12:26:14.554,-1522.85, 6811262, 167.88,   1.65, 2575135, 2575018, 2574910, 2575068, 2575162,     100,    0.97,   0.566,   12.21,   30.99,    0.09
203017768,2009-08-25T12:26:18.221,-1519.18, 6792075, 167.91,   1.64, 2575143, 2575004, 2574914, 2575068, 2575169,      99,    0.30,   0.554,   13.08,   30.89,    0.01
203017769,2009-08-25T12:26:21.888,-1515.51, 6772829, 167.96,   1.61, 2575157, 2575013, 2574914, 2575071, 2575183,     101,    1.09,   0.561,   12.31,   31.17,    0.04
203017770,2009-08-25T12:26:25.555,-1511.85, 6753612, 168.00,   1.59, 2575170, 2575031, 2574927, 2575086, 2575196,     130,    0.95,   0.573,   11.51,   29.22,    0.29
203017771,2009-08-25T12:26:29.222,-1508.18, 6734275, 168.05,   1.56, 2575158, 2575035, 2574944, 2575104, 2575185,     115,    0.73,   0.580,   11.68,   28.02,    0.24
203017772,2009-08-25T12:26:33.554,-1503.85, 6711761, 168.11,   1.54, 2575151, 2575027, 2574907, 2575070, 2575178,      82,    0.78,   0.588,   14.35,   31.59,    0.14
203017773,2009-08-25T12:26:37.221,-1500.18, 6692514, 168.16,   1.51, 2575205, 2575043, 2574930, 2575093, 2575232,     126,    0.78,   0.593,   11.39,   28.41,    0.17
203017774,2009-08-25T12:26:40.888,-1496.51, 6673358, 168.20,   1.49, 2575183, 2575036, 2574934, 2575098, 2575210,     107,    0.90,   0.594,   12.17,   31.00,    0.04
203017775,2009-08-25T12:26:44.555,-1492.85, 6654231, 168.24,   1.48, 2575197, 2575039, 2574911, 2575074, 2575225,     126,    0.53,   0.595,   11.35,   27.57,    0.17
203017776,2009-08-25T12:26:48.222,-1489.18, 6634924, 168.27,   1.46, 2575217, 2575101, 2574945, 2575108, 2575245,     127,    0.62,   0.597,   11.13,   26.53,    0.17
203017777,2009-08-25T12:26:52.554,-1484.85, 6612320, 168.32,   1.45, 2575187, 2575048, 2574915, 2575072, 2575214,     123,    0.57,   0.577,   11.68,   29.02,    0.09
203017778,2009-08-25T12:26:56.221,-1481.18, 6593193, 168.37,   1.43, 2575206, 2575042, 2574915, 2575071, 2575233,     134,    0.40,   0.573,   10.72,   27.25,    0.17
203017779,2009-08-25T12:26:59.888,-1477.51, 6573946, 168.42,   1.42, 2575208, 2575096, 2574931, 2575085, 2575235,     123,    0.74,   0.571,   11.78,   28.84,    0.04
203017780,2009-08-25T12:27:03.555,-1473.85, 6554850, 168.47,   1.39, 2575233, 2575079, 2574950, 2575106, 2575260,     118,    0.78,   0.576,   12.05,   29.77,    0.01
203017781,2009-08-25T12:27:07.222,-1470.18, 6535753, 168.51,   1.37, 2575196, 2575084, 2574947, 2575104, 2575223,     124,    0.74,   0.582,   11.00,   26.93,    0.07
203017782,2009-08-25T12:27:11.554,-1465.85, 6513059, 168.55,   1.35, 2575213, 2575089, 2574936, 2575091, 2575240,     123,    1.04,   0.579,   11.52,   28.62,    0.01
203017783,2009-08-25T12:27:15.221,-1462.18, 6493962, 168.60,   1.33, 2575198, 2575099, 2574958, 2575116, 2575226,     110,    1.14,   0.586,   11.97,   29.72,    0.04
203017784,2009-08-25T12:27:18.888,-1458.51, 6474775, 168.65,   1.31, 2575182, 2575133, 2574951, 2575108, 2575210,     139,    0.95,   0.588,   11.94,   29.11,    0.08
203017785,2009-08-25T12:27:22.555,-1454.85, 6455678, 168.69,   1.29, 2575180, 2575138, 2574975, 2575132, 2575208,     125,    0.86,   0.588,   12.07,   28.14,    0.06
203017786,2009-08-25T12:27:26.222,-1451.18, 6436522, 168.73,   1.28, 2575155, 2575161, 2574975, 2575128, 2575182,     135,    1.18,   0.575,   10.31,   26.95,    0.03
203017787,2009-08-25T12:27:30.554,-1446.85, 6414097, 168.78,   1.28, 2575189, 2575032, 2574941, 2575089, 2575215,     109,    0.69,   0.556,   12.20,   31.37,    0.03
203017788,2009-08-25T12:27:34.221,-1443.18, 6395060, 168.83,   1.26, 2575171, 2575024, 2574930, 2575077, 2575197,     130,    0.73,   0.554,   10.75,   27.29,    0.19
203017789,2009-08-25T12:27:37.888,-1439.51, 6375964, 168.87,   1.24, 2575205, 2575139, 2574963, 2575110, 2575231,     130,    1.00,   0.556,   11.23,   27.21,    0.03
203017790,2009-08-25T12:27:41.555,-1435.85, 6356927, 168.92,   1.22, 2575170, 2575012, 2574930, 2575077, 2575197,     128,    0.28,   0.557,    9.59,   25.76,    0.31
203017791,2009-08-25T12:27:45.222,-1432.18, 6337650, 168.97,   1.20, 2575151, 2575104, 2574935, 2575084, 2575178,     125,    0.86,   0.566,   10.93,   27.58,    0.03
203017792,2009-08-25T12:27:49.554,-1427.85, 6315136, 169.03,   1.16, 2575131, 2575118, 2574960, 2575112, 2575158,     117,    1.55,   0.580,   11.15,   27.87,    0.10
203017793,2009-08-25T12:27:53.221,-1424.18, 6296069, 169.08,   1.15, 2575149, 2575136, 2574932, 2575081, 2575176,     148,    0.72,   0.569,   10.76,   27.14,    0.08
203017794,2009-08-25T12:27:56.888,-1420.51, 6276972, 169.13,   1.14, 2575166, 2575181, 2574971, 2575119, 2575193,     147,    0.74,   0.566,   10.83,   29.42,    0.06
203017795,2009-08-25T12:28:00.555,-1416.85, 6257995, 169.18,   1.12, 2575161, 2575145, 2574963, 2575110, 2575188,     140,    1.08,   0.564,   10.74,   28.21,    0.03
203017796,2009-08-25T12:28:04.222,-1413.18, 6239078, 169.23,   1.11, 2575148, 2575044, 2574932, 2575076, 2575174,     121,    0.44,   0.555,    9.52,   25.82,    0.14
203017797,2009-08-25T12:28:08.554,-1408.85, 6216504, 169.30,   1.08, 2575162, 2575137, 2574939, 2575083, 2575189,     140,    0.73,   0.559,    9.59,   26.48,    0.11
203017798,2009-08-25T12:28:12.221,-1405.18, 6197677, 169.33,   1.06, 2575142, 2575021, 2574899, 2575046, 2575169,     147,    0.34,   0.569,    8.42,   24.32,    0.32
203017799,2009-08-25T12:28:15.888,-1401.51, 6178460, 169.37,   1.05, 2575137, 2575136, 2574948, 2575093, 2575164,     137,    0.82,   0.566,    9.61,   26.31,    0.04
203017800,2009-08-25T12:28:19.555,-1397.85, 6159423, 169.42,   1.03, 2575132, 2575151, 2574939, 2575083, 2575159,     141,    0.53,   0.560,    9.14,   27.06,    0.14
203017801,2009-08-25T12:28:23.222,-1394.18, 6140447, 169.48,   1.03, 2575216, 2575144, 2574979, 2575118, 2575242,     123,    1.20,   0.542,   11.60,   28.75,    0.04
203017802,2009-08-25T12:28:27.554,-1389.85, 6118022, 169.55,   1.01, 2575157, 2575126, 2574964, 2575097, 2575183,     122,    0.96,   0.522,    9.82,   27.83,    0.05
203017805,2009-08-25T12:28:38.555,-1378.85, 6061091, 169.71,   0.94, 2575154, 2575132, 2574972, 2575108, 2575180,     121,    1.19,   0.540,   10.53,   28.75,    0.01
203017806,2009-08-25T12:28:42.222,-1375.18, 6042265, 169.76,   0.92, 2575150, 2575111, 2574950, 2575089, 2575177,     134,    0.85,   0.550,    8.95,   25.41,    0.15
203017807,2009-08-25T12:28:46.553,-1370.85, 6019780, 169.81,   0.90, 2575127, 2575128, 2574970, 2575110, 2575154,     117,    1.38,   0.557,   11.04,   29.98,    0.07
203017808,2009-08-25T12:28:50.220,-1367.18, 6000803, 169.85,   0.88, 2575133, 2575148, 2574973, 2575113, 2575160,     113,    0.60,   0.555,    8.63,   26.75,    0.08
203017809,2009-08-25T12:28:53.887,-1363.52, 5981886, 169.90,   0.87, 2575139, 2575148, 2574991, 2575128, 2575166,     116,    1.39,   0.549,    9.82,   28.59,    0.06
203017810,2009-08-25T12:28:57.554,-1359.85, 5962939, 169.96,   0.86, 2575131, 2575152, 2574993, 2575128, 2575157,     112,    1.19,   0.541,   11.09,   30.50,    0.06
203017811,2009-08-25T12:29:01.221,-1356.18, 5944053, 170.03,   0.84, 2575139, 2575131, 2574976, 2575106, 2575164,     111,    1.02,   0.525,   10.18,   28.04,    0.00
203017812,2009-08-25T12:29:05.553,-1351.85, 5921718, 170.09,   0.82, 2575153, 2575127, 2574961, 2575091, 2575178,     117,    0.73,   0.524,    9.37,   25.45,    0.09
203017813,2009-08-25T12:29:09.220,-1348.18, 5902831, 170.15,   0.80, 2575133, 2575134, 2574972, 2575103, 2575159,     116,    0.86,   0.531,    8.59,   26.13,    0.06
203017814,2009-08-25T12:29:12.887,-1344.52, 5884034, 170.20,   0.77, 2575106, 2575026, 2574939, 2575071, 2575132,     102,    0.72,   0.538,    8.30,   26.46,    0.19
203017815,2009-08-25T12:29:16.554,-1340.85, 5865057, 170.26,   0.75, 2575133, 2575103, 2574943, 2575077, 2575159,     115,    0.88,   0.545,    8.37,   25.89,    0.06
203017816,2009-08-25T12:29:20.221,-1337.18, 5846320, 170.30,   0.73, 2575130, 2575107, 2574957, 2575091, 2575156,     115,    1.03,   0.548,    8.43,   25.65,    0.05
203017817,2009-08-25T12:29:24.553,-1332.85, 5824016, 170.36,   0.72, 2575110, 2575058, 2574931, 2575063, 2575137,     106,    0.68,   0.541,    8.45,   26.36,    0.10
203017818,2009-08-25T12:29:28.220,-1329.18, 5805069, 170.42,   0.70, 2575118, 2575095, 2574954, 2575085, 2575145,     107,    1.23,   0.540,    8.98,   26.77,    0.03
203017819,2009-08-25T12:29:31.887,-1325.52, 5786212, 170.48,   0.69, 2575112, 2575094, 2574973, 2575102, 2575138,      90,    1.88,   0.532,   11.66,   31.06,    0.14
203017820,2009-08-25T12:29:35.554,-1321.85, 5767385, 170.55,   0.66, 2575115, 2575089, 2574941, 2575069, 2575141,     106,    0.93,   0.530,    9.09,   26.87,    0.00
203017821,2009-08-25T12:29:39.221,-1318.18, 5748588, 170.60,   0.63, 2575096, 2575036, 2574914, 2575044, 2575122,     109,    0.99,   0.537,    8.15,   25.34,    0.06
203017822,2009-08-25T12:29:43.553,-1313.85, 5726253, 170.67,   0.62, 2575121, 2575129, 2574967, 2575096, 2575148,     112,    1.00,   0.538,    9.56,   27.67,    0.00
203017823,2009-08-25T12:29:47.220,-1310.18, 5707576, 170.73,   0.59, 2575099, 2575022, 2574946, 2575075, 2575125,     103,    0.65,   0.539,    7.56,   26.42,    0.21
203017824,2009-08-25T12:29:50.887,-1306.52, 5688749, 170.78,   0.57, 2575108, 2575061, 2574937, 2575068, 2575135,      99,    1.08,   0.544,    9.82,   28.67,    0.00
203017825,2009-08-25T12:29:54.554,-1302.85, 5669922, 170.83,   0.55, 2575096, 2575088, 2574918, 2575050, 2575123,     124,    1.05,   0.549,    7.70,   26.96,    0.02
203017826,2009-08-25T12:29:58.221,-1299.18, 5651155, 170.89,   0.54, 2575100, 2575075, 2574930, 2575059, 2575127,     103,    0.79,   0.544,    8.28,   25.88,    0.01
203017827,2009-08-25T12:30:02.553,-1294.85, 5628971, 170.96,   0.52, 2575106, 2574983, 2574878, 2575007, 2575133,     123,    0.18,   0.542,    6.09,   24.02,    0.34
203017828,2009-08-25T12:30:06.220,-1291.18, 5610354, 171.03,   0.49, 2575085, 2574956, 2574888, 2575016, 2575112,      95,    0.25,   0.541,    7.12,   26.15,    0.14
203017829,2009-08-25T12:30:09.887,-1287.52, 5591407, 171.09,   0.47, 2575111, 2575065, 2574923, 2575050, 2575137,     116,    0.85,   0.539,    7.96,   25.42,    0.10
203017830,2009-08-25T12:30:13.554,-1283.85, 5572760, 171.15,   0.45, 2575108, 2575011, 2574899, 2575027, 2575135,     106,    0.50,   0.542,    7.19,   24.53,    0.08
203017831,2009-08-25T12:30:17.221,-1280.18, 5554112, 171.21,   0.43, 2575092, 2574950, 2574890, 2575018, 2575119,     104,    0.22,   0.544,    7.11,   25.66,    0.27
203017832,2009-08-25T12:30:21.553,-1275.85, 5531808, 171.28,   0.41, 2575094, 2575079, 2574925, 2575052, 2575121,     110,    0.76,   0.542,    8.28,   28.11,    0.03
203017833,2009-08-25T12:30:25.220,-1272.18, 5513191, 171.34,   0.39, 2575091, 2574985, 2574899, 2575027, 2575118,      95,    0.42,   0.547,    7.31,   26.97,    0.09
203017834,2009-08-25T12:30:28.887,-1268.52, 5494424, 171.40,   0.38, 2575083, 2575053, 2574915, 2575039, 2575109,     109,    0.89,   0.532,    7.23,   25.80,    0.07
203017835,2009-08-25T12:30:32.554,-1264.85, 5475777, 171.47,   0.37, 2575099, 2575003, 2574917, 2575038, 2575125,     100,    0.61,   0.523,    7.80,   26.65,    0.15
203017836,2009-08-25T12:30:36.221,-1261.18, 5457010, 171.53,   0.35, 2575080, 2575065, 2574915, 2575035, 2575106,     107,    0.95,   0.521,    5.61,   25.04,    0.03
203017837,2009-08-25T12:30:40.553,-1256.85, 5434945, 171.60,   0.33, 2575096, 2575068, 2574914, 2575034, 2575122,     114,    1.07,   0.521,    7.29,   27.55,    0.00
203017838,2009-08-25T12:30:44.220,-1253.18, 5416358, 171.67,   0.30, 2575053, 2574992, 2574868, 2574988, 2575079,     106,    0.67,   0.522,    6.08,   23.01,    0.13
203017839,2009-08-25T12:30:47.887,-1249.52, 5397591, 171.73,   0.27, 2575095, 2575086, 2574938, 2575060, 2575121,     104,    1.08,   0.531,    6.97,   26.30,    0.01
203017840,2009-08-25T12:30:51.554,-1245.85, 5379004, 171.80,   0.25, 2575094, 2575044, 2574914, 2575032, 2575120,     105,    0.84,   0.517,    6.93,   27.10,    0.05
203017841,2009-08-25T12:30:55.221,-1242.18, 5360357, 171.87,   0.24, 2575081, 2575046, 2574909, 2575024, 2575107,      99,    0.73,   0.506,    6.84,   24.79,    0.06
203017842,2009-08-25T12:30:59.552,-1237.85, 5338382, 171.95,   0.22, 2575079, 2575005, 2574931, 2575045, 2575105,      82,    0.16,   0.505,    6.32,   24.31,    0.13
203017843,2009-08-25T12:31:03.219,-1234.18, 5319825, 172.01,   0.19, 2575074, 2575074, 2574912, 2575026, 2575099,     112,    0.71,   0.506,    5.84,   24.71,    0.16
203017844,2009-08-25T12:31:06.886,-1230.52, 5301148, 172.08,   0.17, 2575086, 2575012, 2574912, 2575028, 2575111,      86,    0.44,   0.515,    7.29,   25.60,    0.06
203017845,2009-08-25T12:31:10.553,-1226.85, 5282560, 172.14,   0.14, 2575070, 2575032, 2574910, 2575025, 2575096,      97,    1.06,   0.516,    7.74,   28.58,    0.00
203017846,2009-08-25T12:31:14.220,-1223.18, 5263943, 172.21,   0.12, 2575073, 2575060, 2574935, 2575049, 2575098,      92,    1.27,   0.508,    8.36,   26.90,    0.05
203017847,2009-08-25T12:31:18.552,-1218.85, 5241969, 172.30,   0.10, 2575071, 2575084, 2574939, 2575050, 2575096,      94,    0.78,   0.500,    7.37,   27.48,    0.04
203017848,2009-08-25T12:31:22.219,-1215.18, 5223441, 172.37,   0.07, 2575066, 2575063, 2574940, 2575050, 2575091,      81,    1.19,   0.499,    8.48,   27.87,    0.07
203017849,2009-08-25T12:31:25.886,-1211.52, 5204884, 172.43,   0.05, 2575073, 2575060, 2574927, 2575038, 2575098,      96,    1.26,   0.503,    7.43,   27.49,    0.02
203017850,2009-08-25T12:31:29.553,-1207.85, 5186447, 172.50,   0.02, 2575060, 2574975, 2574895, 2575006, 2575086,      97,    0.52,   0.508,    5.76,   25.39,    0.28
203017851,2009-08-25T12:31:33.220,-1204.18, 5167920, 172.57,  -0.01, 2575073, 2574994, 2574904, 2575015, 2575098,     104,    1.08,   0.507,    6.91,   26.46,    0.15
203017852,2009-08-25T12:31:37.552,-1199.85, 5145975, 172.66,  -0.04, 2575058, 2575042, 2574913, 2575022, 2575083,      94,    0.89,   0.499,    4.03,   25.57,    0.03
203017853,2009-08-25T12:31:41.552,-1195.85, 5125769, 172.74,  -0.05, 2575044, 2575030, 2574903, 2575009, 2575068,      86,    0.65,   0.484,    7.36,   26.68,    0.04
203017854,2009-08-25T12:31:45.219,-1192.18, 5107332, 172.81,  -0.07, 2575048, 2575001, 2574899, 2575002, 2575072,      83,    1.08,   0.479,    7.40,   27.38,    0.03
203017855,2009-08-25T12:31:48.886,-1188.52, 5088805, 172.88,  -0.08, 2575041, 2575052, 2574918, 2575020, 2575064,      80,    1.27,   0.472,    7.82,   26.76,    0.03
203017856,2009-08-25T12:31:52.553,-1184.85, 5070427, 172.96,  -0.09, 2575045, 2575039, 2574915, 2575014, 2575068,      84,    0.91,   0.459,    7.66,   27.63,    0.02
203017857,2009-08-25T12:31:56.220,-1181.18, 5051870, 173.05,  -0.11, 2575052, 2575042, 2574923, 2575016, 2575074,      89,    1.50,   0.431,    7.65,   29.11,    0.06
203017858,2009-08-25T12:32:00.552,-1176.85, 5030105, 173.17,  -0.04, 2575048, 2575027, 2574923, 2575003, 2575068,      84,    1.22,   0.362,    8.18,   28.70,    0.02
